Meath Environmental Platform

Observations

Time Sensor AQI SAQ Temp °C Hum % Pres Pa CO μg/m³ H₂S μg/m³ NO μg/m³ NO₂ μg/m³ O₃ μg/m³ SO₂ μg/m³ CO₂e PPM VOC PPM PM1 μg/m³ PM2.5 μg/m³ PM4 μg/m³ PM10 μg/m³ TPS µm
Tuesday 11 August 2026
23:13 Trim Market St 2 22 51 56,585 0 0 1.26 12.4 64.3 0 2.14 3.94 4.57
23:12 Trim Patrick St 3 21.3 55 69,444 0 9.9 1.25 23.02 46.66 4.01 2.86 6.88 7.56
23:12 Trim Market St 2 22 51 56,494 0 0 1.26 19.92 54.67 0 1.43 2.92 3.09
23:11 Trim Patrick St 3 21.3 54 69,434 0 8.82 1.27 30.19 44.87 4.05 3.71 8.4 9.25
23:11 Trim Market St 2 22.1 51 56,681 0 0 1.26 16.56 59.36 0 1.43 3.44 3.83
23:10 Trim Patrick St 3 21.3 53 69,420 0 8.95 1.3 19.08 46.25 4.31 3.71 8.48 9.33
23:10 Trim Market St 2 22.1 51 56,679 0 0 1.29 14.09 63.56 0 2.14 4.47 5.31
23:09 Trim Patrick St 3 21.4 54 69,428 0 10.16 1.25 24.13 53.04 5 2.86 7.7 8.47
23:08 Trim Patrick St 3 21.4 54 69,410 0 7.57 1.24 18.64 41.24 3.81 3.71 8.44 9.28
23:08 Trim Market St 2 22.1 51 56,647 0 0 1.28 15.11 60.12 0 0.71 2.93 3.09
23:07 Trim Patrick St 3 21.4 55 69,418 0 11.85 1.22 30.06 50.67 4.84 4.57 9.87 10.86
23:07 Trim Market St 2 22.1 51 56,618 0 0 1.29 19.51 61.51 0 0.71 3.44 3.83
23:06 Trim Patrick St 3 21.4 54 69,399 0 10.11 1.22 32.5 50.3 4.98 3.71 9.15 10.07
23:06 Trim Market St 2 22.1 51 56,592 0 0 1.32 18.46 60.21 0 0.71 2.93 3.08
23:05 Trim Patrick St 3 21.4 54 69,402 0 7.12 1.24 14.92 38.12 3.84 2.86 7.64 8.41
23:04 Trim Patrick St 3 21.4 54 69,383 0 11.56 1.22 28.76 53.95 4.92 3.71 8.44 9.28
23:03 Trim Patrick St 3 21.4 54 69,381 0 9.29 1.22 35.32 44.53 4.41 3.71 8.43 9.27
23:02 Trim Patrick St 3 21.5 54 69,381 0 8.23 1.23 15.06 45.44 4.61 2.86 6.9 7.59
23:02 Trim Market St 2 22.2 50 56,562 0 0 1.38 23.81 59.18 0 0.71 3.46 3.81
23:01 Trim Patrick St 3 21.5 54 69,379 0 10.29 1.23 24.88 45.72 4.46 3.71 8.4 9.24